NAY57RJ GCLP-GCTS

Flight info

Callsign NAY57RJ
Flight time 0h 30m
Altitude 10000
Route LOMAS
Aircraft AT76/M-SDFGRY/LB1

Departure

Time 2026-04-27 23:51
Airport Gran Canaria Airport (GCLP)

Arrival

Time 2026-04-28 00:21
Airport Tenerife Sur Airport (GCTS)
Time Latitude Longitude Altitude Speed Heading
2026-04-27 23:17 27.93497 -15.38800 73 ft 0 kts 292°
2026-04-27 23:43 27.93501 -15.38811 77 ft 4 kts 292°
2026-04-27 23:43 27.93512 -15.38861 81 ft 11 kts 260°
2026-04-27 23:43 27.93420 -15.38909 81 ft 19 kts 195°
2026-04-27 23:43 27.93295 -15.38962 74 ft 20 kts 201°
2026-04-27 23:44 27.93167 -15.39019 73 ft 20 kts 202°
2026-04-27 23:44 27.93036 -15.39080 74 ft 21 kts 197°
2026-04-27 23:44 27.92905 -15.39133 84 ft 19 kts 201°
2026-04-27 23:44 27.92788 -15.39195 86 ft 17 kts 217°
2026-04-27 23:45 27.92693 -15.39262 91 ft 15 kts 204°
2026-04-27 23:45 27.92595 -15.39307 95 ft 15 kts 200°
2026-04-27 23:45 27.92493 -15.39323 96 ft 16 kts 160°
2026-04-27 23:45 27.92414 -15.39223 94 ft 18 kts 146°
2026-04-27 23:46 27.92300 -15.39251 96 ft 17 kts 202°
2026-04-27 23:46 27.92184 -15.39302 95 ft 19 kts 198°
2026-04-27 23:46 27.92040 -15.39303 88 ft 19 kts 175°
2026-04-27 23:46 27.92023 -15.39301 88 ft 0 kts 175°
2026-04-27 23:48 27.91993 -15.39299 87 ft 15 kts 175°
2026-04-27 23:48 27.91945 -15.39288 87 ft 2 kts 153°
2026-04-27 23:48 27.91926 -15.39268 86 ft 0 kts 122°
2026-04-27 23:49 27.91931 -15.39216 84 ft 7 kts 42°
2026-04-27 23:49 27.91945 -15.39207 81 ft 0 kts 29°
2026-04-27 23:50 27.91967 -15.39195 81 ft 22 kts 25°
2026-04-27 23:50 27.92319 -15.39042 69 ft 84 kts 22°
2026-04-27 23:51 27.93012 -15.38753 216 ft 116 kts 18°
2026-04-27 23:51 27.93762 -15.38427 689 ft 118 kts 16°
2026-04-27 23:51 27.94573 -15.38146 894 ft 132 kts 14°
2026-04-27 23:51 27.95518 -15.37798 1038 ft 150 kts 13°
2026-04-27 23:52 27.96559 -15.37397 1207 ft 165 kts 20°
2026-04-27 23:52 27.97599 -15.36851 1602 ft 164 kts 22°
2026-04-27 23:52 27.98627 -15.36302 1993 ft 165 kts 20°
2026-04-27 23:52 27.99680 -15.35786 2374 ft 165 kts 18°
2026-04-27 23:53 28.00743 -15.35309 2782 ft 164 kts 18°
2026-04-27 23:53 28.01807 -15.34855 3172 ft 164 kts 18°
2026-04-27 23:53 28.02851 -15.34342 3518 ft 166 kts 33°
2026-04-27 23:53 28.03389 -15.33164 3851 ft 182 kts 84°
2026-04-27 23:54 28.03154 -15.31733 4236 ft 188 kts 102°
2026-04-27 23:54 28.02682 -15.30341 4631 ft 190 kts 109°
2026-04-27 23:54 28.02120 -15.28985 5019 ft 191 kts 111°
2026-04-27 23:54 28.01962 -15.28621 5118 ft 191 kts 112°
2026-04-27 23:55 28.01599 -15.27793 5336 ft 192 kts 112°
2026-04-27 23:56 28.01026 -15.26453 5678 ft 192 kts 112°
2026-04-27 23:56 28.00438 -15.25074 6016 ft 192 kts 111°
2026-04-27 23:56 27.99996 -15.24034 6287 ft 191 kts 112°
2026-04-27 23:56 27.99699 -15.23322 6474 ft 191 kts 111°
2026-04-27 23:57 27.98897 -15.22127 6719 ft 199 kts 146°
2026-04-27 23:57 27.97553 -15.21803 6985 ft 205 kts 190°
2026-04-27 23:57 27.96334 -15.22551 7304 ft 200 kts 232°
2026-04-27 23:57 27.95668 -15.23910 7586 ft 199 kts 249°
2026-04-27 23:58 27.95090 -15.25329 7894 ft 199 kts 250°
2026-04-27 23:58 27.94502 -15.26743 8215 ft 198 kts 246°
2026-04-27 23:58 27.93881 -15.28126 8521 ft 198 kts 246°
2026-04-27 23:58 27.93198 -15.29487 8826 ft 198 kts 243°
2026-04-27 23:59 27.92491 -15.30825 9117 ft 198 kts 241°
2026-04-27 23:59 27.91778 -15.32159 9410 ft 198 kts 241°
2026-04-27 23:59 27.91058 -15.33488 9706 ft 198 kts 240°
2026-04-27 23:59 27.90331 -15.34837 9865 ft 205 kts 242°
2026-04-28 00:00 27.89567 -15.36247 9935 ft 215 kts 242°
2026-04-28 00:00 27.88766 -15.37723 9962 ft 225 kts 240°
2026-04-28 00:00 27.87944 -15.39272 9974 ft 234 kts 243°
2026-04-28 00:00 27.87103 -15.40867 10017 ft 238 kts 242°
2026-04-28 00:01 27.86262 -15.42495 10061 ft 242 kts 241°
2026-04-28 00:01 27.85396 -15.44141 10080 ft 246 kts 240°
2026-04-28 00:01 27.84510 -15.45809 10090 ft 248 kts 240°
2026-04-28 00:01 27.83612 -15.47487 10095 ft 251 kts 242°
2026-04-28 00:02 27.82716 -15.49183 10101 ft 253 kts 242°
2026-04-28 00:02 27.81802 -15.50883 10094 ft 253 kts 240°
2026-04-28 00:02 27.80895 -15.52595 10095 ft 254 kts 242°
2026-04-28 00:02 27.79981 -15.54302 10090 ft 254 kts 240°
2026-04-28 00:03 27.79066 -15.56017 10098 ft 254 kts 241°
2026-04-28 00:03 27.78145 -15.57728 10097 ft 255 kts 241°
2026-04-28 00:03 27.77226 -15.59437 10102 ft 256 kts 241°
2026-04-28 00:03 27.76297 -15.61158 10092 ft 256 kts 240°
2026-04-28 00:04 27.75371 -15.62882 10094 ft 258 kts 241°
2026-04-28 00:04 27.73491 -15.66333 10087 ft 257 kts 241°
2026-04-28 00:04 27.72925 -15.68195 10092 ft 250 kts 268°
2026-04-28 00:05 27.72913 -15.70155 10084 ft 251 kts 272°
2026-04-28 00:05 27.73065 -15.72128 10030 ft 253 kts 281°
2026-04-28 00:05 27.73483 -15.74044 9926 ft 257 kts 289°
2026-04-28 00:05 27.74102 -15.75984 9778 ft 262 kts 292°
2026-04-28 00:06 27.74759 -15.77891 9629 ft 265 kts 292°
2026-04-28 00:06 27.75430 -15.79864 9470 ft 267 kts 291°
2026-04-28 00:06 27.76061 -15.81847 9320 ft 269 kts 290°
2026-04-28 00:06 27.76682 -15.83843 9167 ft 271 kts 290°
2026-04-28 00:07 27.77306 -15.85854 9014 ft 272 kts 291°
2026-04-28 00:07 27.77933 -15.87864 8866 ft 273 kts 290°
2026-04-28 00:07 27.78565 -15.89894 8714 ft 274 kts 291°
2026-04-28 00:07 27.79196 -15.91924 8559 ft 274 kts 291°
2026-04-28 00:08 27.79828 -15.93951 8410 ft 275 kts 291°
2026-04-28 00:08 27.80460 -15.95991 8258 ft 275 kts 291°
2026-04-28 00:08 27.81095 -15.98031 8107 ft 275 kts 291°
2026-04-28 00:08 27.81711 -16.00011 7964 ft 275 kts 292°
2026-04-28 00:09 27.81920 -16.00705 7935 ft 271 kts 292°
2026-04-28 00:09 27.82510 -16.02672 7813 ft 260 kts 292°
2026-04-28 00:09 27.83084 -16.04604 7692 ft 259 kts 292°
2026-04-28 00:09 27.83687 -16.06540 7580 ft 263 kts 291°
2026-04-28 00:10 27.84286 -16.08504 7454 ft 265 kts 291°
2026-04-28 00:10 27.84896 -16.10481 7268 ft 269 kts 291°
2026-04-28 00:10 27.85522 -16.12502 7062 ft 274 kts 292°
2026-04-28 00:10 27.86139 -16.14503 6924 ft 265 kts 294°
2026-04-28 00:11 27.86746 -16.16443 6715 ft 258 kts 294°
2026-04-28 00:11 27.87338 -16.18341 6528 ft 253 kts 294°
2026-04-28 00:11 27.87923 -16.20170 6332 ft 249 kts 293°
2026-04-28 00:11 27.88505 -16.21997 6121 ft 246 kts 293°
2026-04-28 00:12 27.89064 -16.23821 5917 ft 245 kts 294°
2026-04-28 00:12 27.89619 -16.25629 5714 ft 239 kts 297°
2026-04-28 00:12 27.90619 -16.27029 5517 ft 228 kts 329°
2026-04-28 00:12 27.92014 -16.27871 5326 ft 227 kts 339°
2026-04-28 00:13 27.93485 -16.28544 5132 ft 229 kts 341°
2026-04-28 00:13 27.94975 -16.29182 4933 ft 230 kts 341°
2026-04-28 00:13 27.96469 -16.29831 4725 ft 230 kts 340°
2026-04-28 00:13 27.97953 -16.30512 4529 ft 230 kts 340°
2026-04-28 00:14 27.99431 -16.31208 4322 ft 230 kts 340°
2026-04-28 00:14 28.00008 -16.31480 4246 ft 230 kts 339°
2026-04-28 00:14 28.01392 -16.32133 4048 ft 223 kts 340°
2026-04-28 00:14 28.02805 -16.32810 3849 ft 217 kts 340°
2026-04-28 00:15 28.04187 -16.33467 3659 ft 213 kts 340°
2026-04-28 00:15 28.05541 -16.34110 3466 ft 210 kts 340°
2026-04-28 00:15 28.06873 -16.34760 3249 ft 207 kts 339°
2026-04-28 00:15 28.08202 -16.35389 3042 ft 208 kts 338°
2026-04-28 00:16 28.09475 -16.36142 2843 ft 209 kts 316°
2026-04-28 00:16 28.10173 -16.37573 2648 ft 209 kts 290°
2026-04-28 00:16 28.10478 -16.39172 2444 ft 206 kts 277°
2026-04-28 00:16 28.10384 -16.40710 2268 ft 183 kts 256°
2026-04-28 00:17 28.10037 -16.42007 2284 ft 157 kts 251°
2026-04-28 00:17 28.09590 -16.43083 2275 ft 147 kts 244°
2026-04-28 00:17 28.09078 -16.44093 2158 ft 150 kts 244°
2026-04-28 00:17 28.08603 -16.45155 2108 ft 150 kts 247°
2026-04-28 00:18 28.08199 -16.46238 2001 ft 153 kts 249°
2026-04-28 00:18 28.07788 -16.47387 1879 ft 157 kts 250°
2026-04-28 00:18 28.07408 -16.48440 1839 ft 135 kts 250°
2026-04-28 00:18 28.07075 -16.49399 1588 ft 133 kts 250°
2026-04-28 00:19 28.06766 -16.50386 1254 ft 136 kts 251°
2026-04-28 00:19 28.06448 -16.51379 1056 ft 129 kts 251°
2026-04-28 00:19 28.06123 -16.52307 848 ft 125 kts 253°
2026-04-28 00:19 28.05849 -16.53181 714 ft 114 kts 250°
2026-04-28 00:20 28.05551 -16.54012 564 ft 112 kts 249°
2026-04-28 00:20 28.05256 -16.54808 431 ft 112 kts 254°
2026-04-28 00:20 28.04992 -16.55655 295 ft 113 kts 249°
2026-04-28 00:20 28.04724 -16.56454 204 ft 100 kts 250°
2026-04-28 00:21 28.04522 -16.57043 195 ft 52 kts 245°
2026-04-28 00:21 28.04394 -16.57400 189 ft 44 kts 245°
2026-04-28 00:21 28.04312 -16.57696 186 ft 35 kts 263°
2026-04-28 00:21 28.04298 -16.57922 199 ft 22 kts 266°
2026-04-28 00:22 28.04294 -16.58007 207 ft 0 kts 266°
2026-04-28 00:24 28.04292 -16.58034 210 ft 10 kts 266°
2026-04-28 00:24 28.04292 -16.58131 223 ft 11 kts 294°
2026-04-28 00:24 28.04331 -16.58180 219 ft 8 kts 322°
2026-04-28 00:24 28.04372 -16.58201 219 ft 6 kts 340°
2026-04-28 00:25 28.04415 -16.58214 220 ft 8 kts
2026-04-28 00:25 28.04463 -16.58146 221 ft 13 kts 70°
2026-04-28 00:25 28.04497 -16.58048 221 ft 14 kts 68°
2026-04-28 00:25 28.04512 -16.58005 221 ft 4 kts 66°
2026-04-28 00:26 28.04530 -16.57997 221 ft 2 kts 353°
2026-04-28 00:26 28.04553 -16.58001 222 ft 5 kts 349°
2026-04-28 00:26 28.04586 -16.58009 222 ft 5 kts 349°
2026-04-28 00:26 28.04589 -16.58009 222 ft 0 kts 349°